• In Uzbekistan
  • List of Countries
  • For 7 days
  • Water Temperature
  • Satellite Maps
  • Weather Map
  • Weather Widgets
  • user-avatar
    Login

    Hourly Weather Chemodurovo

    Today, 22 August, Wednesday

    Time Temperature Precipitation Wind Pressure Humidity
    00:00 +17°C° 0 mm 3 mps 736 mmHg 85%
    01:00 +16°C° 0 mm 3 mps 735 mmHg 85%
    02:00 +15°C° 0 mm 4 mps 735 mmHg 84%
    03:00 +15°C° 0 mm 4 mps 735 mmHg 84%
    04:00 +16°C° 0 mm 5 mps 735 mmHg 80%
    05:00 +17°C° 0 mm 4 mps 735 mmHg 80%
    06:00 +17°C° 0 mm 4 mps 734 mmHg 80%
    07:00 +17°C° 0 mm 4 mps 734 mmHg 80%
    08:00 +19°C° 0 mm 5 mps 734 mmHg 75%
    09:00 +20°C° 0 mm 5 mps 734 mmHg 70%
    10:00 +22°C° 0 mm 6 mps 734 mmHg 65%
    11:00 +22°C° 0.1 mm 6 mps 734 mmHg 63%
    12:00 +23°C° 0.1 mm 7 mps 734 mmHg 61%
    13:00 +24°C° 0.1 mm 7 mps 734 mmHg 58%
    14:00 +22°C° 0.8 mm 6 mps 734 mmHg 67%
    15:00 +20°C° 0.8 mm 5 mps 734 mmHg 76%
    16:00 +17°C° 0.8 mm 5 mps 734 mmHg 85%
    17:00 +17°C° 0.4 mm 4 mps 734 mmHg 88%
    18:00 +17°C° 0.4 mm 4 mps 734 mmHg 90%
    19:00 +16°C° 0.4 mm 3 mps 734 mmHg 93%
    20:00 +16°C° 0.4 mm 3 mps 734 mmHg 93%
    21:00 +14°C° 0.4 mm 3 mps 734 mmHg 93%
    22:00 +14°C° 0.4 mm 3 mps 734 mmHg 93%
    23:00 +13°C° 0.1 mm 3 mps 735 mmHg 93%

    Tomorrow, 23 August, Thursday

    Time Temperature Precipitation Wind Pressure Humidity
    00:00 +12°C° 0.1 mm 3 mps 735 mmHg 93%
    01:00 +12°C° 0.1 mm 4 mps 735 mmHg 93%
    02:00 +11°C° 0 mm 4 mps 736 mmHg 93%
    03:00 +10°C° 0 mm 4 mps 736 mmHg 94%
    04:00 +10°C° 0 mm 4 mps 736 mmHg 95%
    05:00 +10°C° 0 mm 4 mps 737 mmHg 94%
    06:00 +10°C° 0 mm 4 mps 737 mmHg 93%
    07:00 +9°C° 0 mm 5 mps 737 mmHg 93%
    08:00 +10°C° 0 mm 5 mps 738 mmHg 87%
    09:00 +12°C° 0 mm 5 mps 738 mmHg 82%
    10:00 +13°C° 0 mm 5 mps 738 mmHg 76%
    11:00 +14°C° 0.1 mm 6 mps 739 mmHg 72%
    12:00 +15°C° 0.1 mm 6 mps 739 mmHg 67%
    13:00 +15°C° 0.1 mm 7 mps 739 mmHg 63%
    14:00 +15°C° 0 mm 7 mps 739 mmHg 61%
    15:00 +15°C° 0 mm 7 mps 739 mmHg 60%
    16:00 +15°C° 0 mm 7 mps 739 mmHg 59%
    17:00 +14°C° 0 mm 6 mps 740 mmHg 64%
    18:00 +13°C° 0 mm 5 mps 740 mmHg 69%
    19:00 +12°C° 0 mm 4 mps 740 mmHg 73%
    20:00 +11°C° 0 mm 4 mps 740 mmHg 75%
    21:00 +10°C° 0 mm 4 mps 740 mmHg 77%
    22:00 +9°C° 0 mm 3 mps 741 mmHg 79%
    23:00 +9°C° 0 mm 3 mps 741 mmHg 80%

    Day after tomorrow, 24 August, Friday

    Time Temperature Precipitation Wind Pressure Humidity
    00:00 +9°C° 0 mm 3 mps 741 mmHg 81%
    01:00 +9°C° 0 mm 3 mps 741 mmHg 82%
    02:00 +8°C° 0 mm 3 mps 741 mmHg 83%
    03:00 +8°C° 0 mm 3 mps 741 mmHg 83%
    04:00 +8°C° 0 mm 3 mps 741 mmHg 84%
    05:00 +9°C° 0 mm 3 mps 741 mmHg 82%
    06:00 +10°C° 0 mm 4 mps 741 mmHg 80%
    07:00 +10°C° 0 mm 4 mps 741 mmHg 78%
    08:00 +11°C° 0.1 mm 4 mps 741 mmHg 79%
    09:00 +11°C° 0.1 mm 4 mps 741 mmHg 80%
    10:00 +12°C° 0.1 mm 4 mps 741 mmHg 81%
    11:00 +12°C° 0.2 mm 5 mps 740 mmHg 81%
    12:00 +13°C° 0.2 mm 5 mps 740 mmHg 81%
    13:00 +14°C° 0.2 mm 5 mps 740 mmHg 80%
    14:00 +15°C° 0 mm 5 mps 740 mmHg 80%
    15:00 +15°C° 0 mm 5 mps 740 mmHg 79%
    16:00 +16°C° 0 mm 5 mps 740 mmHg 78%
    17:00 +16°C° 0.1 mm 5 mps 740 mmHg 81%
    18:00 +15°C° 0.1 mm 4 mps 740 mmHg 84%
    19:00 +16°C° 0.1 mm 3 mps 740 mmHg 88%
    20:00 +16°C° 0.1 mm 3 mps 739 mmHg 89%
    21:00 +14°C° 0.1 mm 3 mps 739 mmHg 91%
    22:00 +14°C° 0.1 mm 3 mps 739 mmHg 93%
    23:00 +14°C° 0.1 mm 3 mps 739 mmHg 94%

    25 August, Saturday

    Time Temperature Precipitation Wind Pressure Humidity
    00:00 +14°C° 0.1 mm 3 mps 739 mmHg 95%
    01:00 +13°C° 0.1 mm 3 mps 739 mmHg 95%
    02:00 +13°C° 0 mm 3 mps 739 mmHg 96%
    03:00 +13°C° 0 mm 4 mps 739 mmHg 97%
    04:00 +13°C° 0 mm 4 mps 739 mmHg 97%
    05:00 +13°C° 0 mm 4 mps 739 mmHg 96%
    06:00 +13°C° 0 mm 5 mps 739 mmHg 96%
    07:00 +13°C° 0 mm 5 mps 739 mmHg 95%
    08:00 +13°C° 0 mm 5 mps 739 mmHg 91%
    09:00 +14°C° 0 mm 5 mps 739 mmHg 87%
    10:00 +14°C° 0 mm 5 mps 740 mmHg 82%
    11:00 +15°C° 0 mm 5 mps 740 mmHg 79%
    12:00 +15°C° 0 mm 5 mps 740 mmHg 76%
    13:00 +16°C° 0 mm 5 mps 740 mmHg 73%
    14:00 +16°C° 0 mm 5 mps 740 mmHg 70%
    15:00 +17°C° 0 mm 5 mps 740 mmHg 67%
    16:00 +17°C° 0 mm 5 mps 740 mmHg 64%
    17:00 +17°C° 0 mm 4 mps 741 mmHg 69%
    18:00 +15°C° 0 mm 4 mps 741 mmHg 74%
    19:00 +14°C° 0 mm 3 mps 741 mmHg 79%
    20:00 +13°C° 0 mm 3 mps 741 mmHg 82%
    21:00 +13°C° 0 mm 2 mps 741 mmHg 86%
    22:00 +12°C° 0 mm 2 mps 741 mmHg 89%
    23:00 +12°C° 0 mm 2 mps 742 mmHg 90%

    26 August, Sunday

    Time Temperature Precipitation Wind Pressure Humidity
    00:00 +10°C° 0 mm 2 mps 742 mmHg 91%
    01:00 +10°C° 0 mm 2 mps 742 mmHg 92%
    02:00 +10°C° 0 mm 2 mps 742 mmHg 93%
    03:00 +10°C° 0 mm 2 mps 742 mmHg 93%
    04:00 +9°C° 0 mm 2 mps 742 mmHg 94%
    05:00 +10°C° 0 mm 2 mps 742 mmHg 93%
    06:00 +10°C° 0 mm 2 mps 743 mmHg 92%
    07:00 +12°C° 0 mm 2 mps 743 mmHg 91%
    08:00 +13°C° 0 mm 3 mps 743 mmHg 86%
    09:00 +14°C° 0 mm 3 mps 743 mmHg 81%
    10:00 +17°C° 0 mm 4 mps 743 mmHg 76%
    11:00 +18°C° 0 mm 4 mps 743 mmHg 72%
    12:00 +19°C° 0 mm 4 mps 743 mmHg 69%
    13:00 +21°C° 0 mm 4 mps 743 mmHg 66%
    14:00 +21°C° 0 mm 4 mps 743 mmHg 66%
    15:00 +21°C° 0 mm 4 mps 742 mmHg 66%
    16:00 +21°C° 0 mm 3 mps 742 mmHg 66%
    17:00 +20°C° 0 mm 3 mps 742 mmHg 71%
    18:00 +19°C° 0 mm 3 mps 742 mmHg 77%
    19:00 +18°C° 0 mm 2 mps 742 mmHg 82%
    20:00 +17°C° 0 mm 2 mps 742 mmHg 85%
    21:00 +16°C° 0 mm 2 mps 742 mmHg 88%
    22:00 +15°C° 0 mm 2 mps 742 mmHg 91%
    23:00 +15°C° 0 mm 2 mps 742 mmHg 91%

    27 August, Monday

    Time Temperature Precipitation Wind Pressure Humidity
    00:00 +14°C° 0 mm 2 mps 742 mmHg 92%
    01:00 +14°C° 0 mm 2 mps 742 mmHg 92%
    02:00 +14°C° 0 mm 2 mps 742 mmHg 93%
    03:00 +13°C° 0 mm 2 mps 742 mmHg 93%
    04:00 +13°C° 0 mm 2 mps 742 mmHg 94%
    05:00 +13°C° 0 mm 2 mps 743 mmHg 93%
    06:00 +14°C° 0 mm 2 mps 743 mmHg 92%
    07:00 +14°C° 0 mm 2 mps 743 mmHg 91%
    08:00 +14°C° 0 mm 3 mps 743 mmHg 86%
    09:00 +17°C° 0 mm 3 mps 743 mmHg 80%
    10:00 +19°C° 0 mm 4 mps 743 mmHg 74%
    11:00 +20°C° 0 mm 4 mps 743 mmHg 70%
    12:00 +21°C° 0 mm 4 mps 743 mmHg 66%
    13:00 +22°C° 0 mm 4 mps 743 mmHg 62%
    14:00 +22°C° 0.1 mm 4 mps 743 mmHg 62%
    15:00 +22°C° 0.1 mm 4 mps 743 mmHg 61%
    16:00 +22°C° 0.1 mm 4 mps 743 mmHg 61%
    17:00 +20°C° 0 mm 4 mps 743 mmHg 66%
    18:00 +19°C° 0 mm 3 mps 743 mmHg 72%
    19:00 +18°C° 0 mm 2 mps 743 mmHg 77%
    20:00 +17°C° 0 mm 2 mps 743 mmHg 79%
    21:00 +16°C° 0 mm 2 mps 743 mmHg 82%
    22:00 +15°C° 0 mm 2 mps 743 mmHg 84%
    23:00 +14°C° 0 mm 2 mps 743 mmHg 85%
    Show more